sat.trackr.live / text

‹ back to catalog

SHIYAN-13 (SY-13)

NORAD 51102 · 2022-004A

PAYLOAD ACTIVE UNKNOWN

§ Identity

Operator
Country
PRC
Launch date
2022-01-17
Launch site
TAISC
Launch vehicle
Mass (kg)
RCS (m²)

External: N2YO · Heavens-Above · Gunter

§ Orbital elements

Epoch: 2026-05-25T03:53:52.444320Z

Period
101.39 min
Inclination
98.4565°
Eccentricity
0.0603543
Mean motion
14.20280453 rev/d
Perigee alt
389.7 km
Apogee alt
1,259.1 km
Semi-major
7,202.5 km
B*
7.1887e-5
RAAN
165.6708°
Arg perigee
259.3823°
Mean anomaly
93.8868°
Rev number
22,402

§ Raw data

SHIYAN-13 (SY-13)1 51102U 22004A   26145.16241255  .00000979  00000+0  71887-4 0  99902 51102  98.4565 165.6708 0603543 259.3823  93.8868 14.20280453224025

JSON: /api/v1/satellites/51102 · /tle

For live sub-satellite position, see the globe view (requires WebGL).

§ Visibility from observer

Set your observer location to see the next 7 days of passes ≥ 10°. The values pass through the URL so the page stays shareable.

No JS? Fill the form by hand. The geolocation button needs JavaScript.